Home   Weather   Brisbane   Past weeks
Flag for Australia

Past Weather in Brisbane, Queensland, Australia — Yesterday and Last 2 Weeks

Now
72 °F

Scattered showers. Broken clouds.


Feels Like: 71 °F
Forecast: 80 / 61 °F
Wind: 9 mph from Northeast

Location: Brisbane Airport M. O

Current Time: Oct 19, 2019 at 5:10:59 pm

Latest Report: Oct 19, 2019 at 4:00 pm


Visibility: N/A

Pressure: 29.92 "Hg

Humidity: 83%

Dew Point: 66 °F

Location of BrisbaneLocation

Past Weather in Brisbane — Graph

°F

Brisbane Temperature Yesterday

Maximum temperature yesterday: 77 °F (at 11:30 am)
Minimum temperature yesterday: 66 °F (at 2:30 am)
Average temperature yesterday: 72 °F

High & Low Weather Summary for the Past Weeks

 TemperatureHumidityPressure
High79 °F (Oct 5, 11:00 am)100% (Oct 7, 3:30 am)30.18 "Hg (Oct 7, 3:30 am)
Low54 °F (Oct 12, 9:00 am)38% (Oct 9, 12:30 pm)29.71 "Hg (Oct 8, 3:00 pm)
Average68 °F75%29.99 "Hg
* Reported Oct 4 4:00 pm — Oct 19 4:00 pm, Brisbane. Weather by CustomWeather, © 2019

Note: Actual official high and low records may vary slightly from our data, if they occured in-between our weather recording intervals... More about our weather records

Advertising

Brisbane Weather History for the Previous 24 Hours

Scroll right to see more
 ConditionsComfort  
Time TempWeatherWind HumidityBarometerVisibility
4:00 pm
Sat, Oct 19
72 °FScattered showers. Broken clouds.9 mph83%29.92 "HgN/A
3:30 pm72 °FBroken clouds.8 mph83%29.92 "HgN/A
3:00 pm73 °FPartly sunny.8 mph83%29.92 "HgN/A
2:30 pm73 °FScattered showers. Broken clouds.8 mph83%29.92 "HgN/A
2:00 pm72 °FBroken clouds.7 mph88%29.95 "HgN/A
1:30 pm73 °FScattered showers. Broken clouds.6 mph89%29.95 "HgN/A
1:00 pm73 °FPartly sunny.7 mph89%29.98 "HgN/A
12:30 pm70 °FThundershowers. Broken clouds.5 mph94%29.98 "HgN/A
12:23 pm68 °FThunderstorms. Broken clouds.9 mph100%29.98 "HgN/A
12:10 pm72 °FStrong thunderstorms. Cloudy.12 mph83%30.01 "Hg1 mi
12:00 pm72 °FThunderstorms. Mostly cloudy.9 mph83%30.01 "HgN/A
11:30 am73 °FThunderstorms. Mostly cloudy.5 mph74%30.01 "HgN/A
11:00 am73 °FSprinkles. Mostly cloudy.7 mph78%30.04 "HgN/A
10:30 am73 °FSprinkles. Broken clouds.3 mph78%30.04 "HgN/A
10:00 am73 °FRain showers. Mostly cloudy.6 mph78%30.04 "HgN/A
9:30 am72 °FScattered showers. Overcast.6 mph83%30.07 "HgN/A
9:00 am73 °FScattered showers. Partly sunny.6 mph74%30.07 "HgN/A
8:30 am73 °FBroken clouds.7 mph74%30.07 "HgN/A
8:00 am70 °FBroken clouds.6 mph78%30.07 "HgN/A
7:30 am70 °FMostly cloudy.7 mph78%30.07 "HgN/A
7:00 am68 °FMostly cloudy.7 mph83%30.07 "HgN/A
6:30 am66 °FMostly cloudy.7 mph88%30.07 "HgN/A
6:00 am66 °FMore clouds than sun.8 mph88%30.07 "HgN/A
5:30 am66 °FPartly sunny.6 mph88%30.04 "HgN/A
5:00 am66 °FPartly cloudy.5 mph88%30.01 "HgN/A
4:30 am66 °FPartly cloudy.6 mph88%30.01 "HgN/A
4:00 am66 °FPassing clouds.5 mph88%30.01 "HgN/A
3:30 am66 °FPassing clouds.No wind88%30.04 "HgN/A
3:00 am66 °FPassing clouds.3 mph88%30.01 "HgN/A
2:30 am66 °FPassing clouds.5 mph88%30.04 "HgN/A
2:00 am68 °FPassing clouds.5 mph83%30.04 "HgN/A
1:30 am68 °FPassing clouds.3 mph83%30.04 "HgN/A
1:00 am70 °FPassing clouds.7 mph78%30.04 "HgN/A
12:30 am68 °FPassing clouds.7 mph83%30.04 "HgN/A
12:00 am70 °FPassing clouds.8 mph73%30.07 "HgN/A
11:30 pm
Fri, Oct 18
70 °FPassing clouds.8 mph78%30.07 "HgN/A
11:00 pm70 °FPartly cloudy.6 mph73%30.07 "HgN/A
10:30 pm70 °FPassing clouds.7 mph73%30.07 "HgN/A
10:00 pm70 °FPassing clouds.7 mph73%30.07 "HgN/A
9:30 pm70 °FPartly cloudy.7 mph78%30.07 "HgN/A
9:00 pm70 °FPartly cloudy.6 mph78%30.07 "HgN/A
8:30 pm70 °FPassing clouds.8 mph78%30.04 "HgN/A
8:00 pm70 °FPassing clouds.7 mph73%30.04 "HgN/A
7:30 pm70 °FPassing clouds.8 mph73%30.04 "HgN/A
7:00 pm70 °FPassing clouds.9 mph73%30.01 "HgN/A
6:30 pm70 °FPassing clouds.8 mph73%30.01 "HgN/A
6:00 pm72 °FPassing clouds.8 mph69%29.98 "HgN/A
5:30 pm72 °FSunny.10 mph69%29.98 "Hg10 mi
5:00 pm73 °FSunny.10 mph61%29.98 "Hg10 mi
Weather by CustomWeather, © 2019

See weather overview